Date String (YYYY-MM-DD hh:mm:ss) UTC,Instrument flags,Ambient pressure (hPa),Sample flow (lpm),Bypass flow (lpm),Sample temperature (°C),Ambient temperature (°C),ASC tube jacket temperature (°C),LED temperature (°C),Box temperature (°C),Sample RH (%),Span deviation,Mass concentration (μg/m³),Mass concentration (μg/m³),Mass concentration (μg/m³)
DateTimeUTC,F1_M11,P_M11,Q1_M11,Q2_M11,T1_M11,T2_M11,T3_M11,T4_M11,T5_M11,U1_M11,ZSPAN_M11,X0_M11,X2_M11,X1_M11
2022-01-07 05:00:00,,0816.5,5.01,0.00,21.7,21.2,00.0,30.9,23.0,07.6,0002.5,0015.51,0010.01,0009.04
2022-01-07 05:01:00,,0817.1,5.00,0.00,21.5,20.8,00.0,30.9,22.8,07.5,0002.5,0016.01,0010.39,0009.38
2022-01-07 05:02:00,,0817.0,4.99,0.00,21.5,20.9,00.0,30.8,22.8,07.1,0002.5,0016.98,0010.73,0009.68
2022-01-07 05:03:00,,0817.0,5.01,0.00,21.6,21.8,00.0,30.8,23.2,06.9,0002.1,0017.23,0010.77,0009.76
2022-01-07 05:04:00,,0816.9,5.00,0.00,21.8,22.6,00.0,30.9,23.5,06.9,0002.0,0018.22,0010.87,0009.85
2022-01-07 05:05:00,,0817.3,5.01,0.00,21.9,22.6,00.0,30.9,23.7,06.7,0001.9,0018.45,0011.05,0010.05
2022-01-07 05:06:00,,0817.3,5.00,0.00,21.9,22.2,00.0,30.9,23.6,06.5,0002.3,0018.63,0011.18,0010.16
2022-01-07 05:07:00,,0817.0,4.98,0.00,21.9,21.8,00.0,30.9,23.5,06.4,0002.8,0018.86,0011.33,0010.28
2022-01-07 05:08:00,,0816.9,5.00,0.00,21.8,21.5,00.0,30.9,23.4,06.3,0002.8,0019.05,0011.41,0010.36
2022-01-07 05:09:00,,0816.9,5.00,0.00,21.8,21.2,00.0,30.9,23.3,06.2,0002.5,0019.18,0011.49,0010.45
2022-01-07 05:10:00,,0816.8,5.01,0.00,21.7,21.0,00.0,30.8,23.2,06.2,0002.6,0019.42,0011.61,0010.53
2022-01-07 05:11:00,,0816.9,4.99,0.00,21.7,20.9,00.0,30.8,23.2,06.0,0002.5,0019.16,0011.62,0010.55
2022-01-07 05:12:00,,0817.0,5.02,0.00,21.7,21.1,00.0,30.8,23.2,06.0,0002.7,0019.30,0011.66,0010.56
2022-01-07 05:13:00,,0816.8,4.99,0.00,21.8,21.9,00.0,30.8,23.4,05.9,0002.7,0018.71,0011.68,0010.55
2022-01-07 05:14:00,,0816.7,5.01,0.00,21.9,22.7,00.0,30.9,23.7,05.8,0002.5,0018.57,0011.75,0010.56
2022-01-07 05:15:00,,0816.9,5.01,0.00,22.0,22.8,00.0,30.9,23.9,05.7,0002.3,0018.21,0011.80,0010.59
2022-01-07 05:16:00,,0816.9,5.00,0.00,22.0,22.4,00.0,30.9,23.8,05.7,0002.5,0018.36,0011.84,0010.62
2022-01-07 05:17:00,,0817.0,5.00,0.00,22.0,22.1,00.0,30.9,23.7,05.6,0002.1,0018.33,0011.84,0010.63
2022-01-07 05:18:00,,0817.0,5.01,0.00,22.0,21.8,00.0,30.9,23.6,05.7,0001.9,0018.54,0011.81,0010.61
2022-01-07 05:19:00,,0817.0,5.00,0.00,21.9,21.5,00.0,30.9,23.5,05.6,0002.0,0018.50,0011.82,0010.63
2022-01-07 05:20:00,,0816.9,4.99,0.00,21.9,21.3,00.0,30.9,23.4,05.7,0002.0,0018.80,0011.86,0010.68
2022-01-07 05:21:00,,0816.8,5.00,0.00,21.8,21.1,00.0,30.9,23.3,05.7,0001.6,0018.83,0011.87,0010.71
2022-01-07 05:22:00,,0816.5,5.02,0.00,21.7,21.1,00.0,30.9,23.3,05.8,0001.5,0019.26,0011.88,0010.71
2022-01-07 05:23:00,,0816.7,4.99,0.00,21.8,21.9,00.0,30.9,23.5,05.7,0001.4,0020.01,0011.87,0010.69
2022-01-07 05:24:00,,0816.9,5.00,0.00,22.0,22.7,00.0,30.9,23.8,05.6,0001.5,0020.17,0011.84,0010.70
2022-01-07 05:25:00,,0816.6,5.01,0.00,22.1,22.9,00.0,31.0,24.0,05.6,0001.9,0020.12,0011.77,0010.67
2022-01-07 05:26:00,,0816.3,5.00,0.00,22.1,22.5,00.0,31.0,23.9,05.6,0002.1,0019.51,0011.69,0010.63
2022-01-07 05:27:00,,0816.4,4.99,0.00,22.1,22.2,00.0,31.0,23.8,05.9,0002.0,0019.21,0011.61,0010.58
2022-01-07 05:28:00,,0816.5,5.01,0.00,22.0,21.8,00.0,31.0,23.6,06.1,0002.2,0019.07,0011.54,0010.54
2022-01-07 05:29:00,,0816.4,4.99,0.00,21.9,21.3,00.0,31.0,23.3,06.2,0002.3,0018.87,0011.52,0010.51
2022-01-07 05:30:00,,0816.8,5.01,0.00,21.8,21.0,00.0,30.9,23.2,06.3,0002.3,0018.81,0011.45,0010.45
2022-01-07 05:31:00,,0816.8,4.99,0.00,21.7,20.9,00.0,30.9,23.1,06.3,0002.4,0019.43,0011.43,0010.41
2022-01-07 05:32:00,,0816.4,5.00,0.00,21.8,21.5,00.0,30.9,23.3,06.3,0002.4,0019.51,0011.37,0010.35
2022-01-07 05:33:00,,0816.6,4.99,0.00,21.9,22.4,00.0,31.0,23.7,06.2,0002.5,0019.04,0011.33,0010.33
2022-01-07 05:34:00,,0816.4,4.99,0.00,22.1,23.0,00.0,31.0,23.9,06.1,0002.4,0018.18,0011.26,0010.32
2022-01-07 05:35:00,,0816.6,5.01,0.00,22.1,22.8,00.0,31.0,23.9,06.1,0002.6,0017.80,0011.28,0010.30
2022-01-07 05:36:00,,0816.9,5.00,0.00,22.0,22.3,00.0,31.0,23.6,06.0,0002.6,0018.07,0011.34,0010.31
2022-01-07 05:37:00,,0816.4,5.00,0.00,21.9,21.7,00.0,31.0,23.3,06.0,0002.5,0018.15,0011.36,0010.33
2022-01-07 05:38:00,,0816.4,5.00,0.00,21.7,21.1,00.0,31.0,23.1,06.0,0002.4,0018.20,0011.39,0010.34
2022-01-07 05:39:00,,0816.7,4.99,0.00,21.6,20.7,00.0,30.9,22.9,06.3,0002.5,0018.25,0011.41,0010.35
2022-01-07 05:40:00,,0816.8,5.01,0.00,21.6,21.1,00.0,30.9,23.0,06.3,0002.5,0018.27,0011.39,0010.36
2022-01-07 05:41:00,,0816.5,5.00,0.00,21.7,22.0,00.0,30.9,23.3,06.2,0002.6,0018.74,0011.42,0010.39
2022-01-07 05:42:00,,0816.7,5.00,0.00,21.9,22.8,00.0,30.9,23.7,06.2,0002.7,0018.22,0011.44,0010.40
2022-01-07 05:43:00,,0816.4,5.00,0.00,21.9,22.4,00.0,30.9,23.7,06.1,0002.6,0018.42,0011.54,0010.45
2022-01-07 05:44:00,,0816.8,5.01,0.00,21.9,22.0,00.0,30.9,23.6,06.1,0002.7,0018.94,0011.60,0010.50
2022-01-07 05:45:00,,0817.3,4.99,0.00,21.8,21.7,00.0,30.9,23.4,06.1,0002.8,0019.01,0011.66,0010.54
2022-01-07 05:46:00,,0817.0,5.00,0.00,21.7,21.4,00.0,30.9,23.2,06.0,0002.5,0019.14,0011.65,0010.55
2022-01-07 05:47:00,,0816.9,5.02,0.00,21.6,20.8,00.0,30.9,22.9,06.0,0002.3,0019.45,0011.62,0010.56
2022-01-07 05:48:00,,0817.2,4.99,0.00,21.4,20.5,00.0,30.8,22.7,06.1,0002.4,0019.63,0011.63,0010.56
2022-01-07 05:49:00,,0817.1,5.00,0.00,21.5,21.2,00.0,30.8,23.0,06.1,0002.1,0020.13,0011.68,0010.57
2022-01-07 05:50:00,,0816.9,5.00,0.00,21.6,22.0,00.0,30.8,23.3,05.9,0002.1,0020.12,0011.70,0010.59
2022-01-07 05:51:00,,0816.6,4.99,0.00,21.8,22.6,00.0,30.9,23.6,05.8,0001.8,0020.44,0011.76,0010.61
2022-01-07 05:52:00,,0816.8,5.00,0.00,21.9,23.0,00.0,30.9,23.7,05.8,0001.7,0020.07,0011.81,0010.63
2022-01-07 05:53:00,,0817.1,4.99,0.00,21.9,22.3,00.0,30.9,23.4,05.8,0001.7,0019.85,0011.80,0010.61
2022-01-07 05:54:00,,0817.0,5.01,0.00,21.7,21.4,00.0,30.8,23.0,05.9,0002.0,0019.25,0011.71,0010.56
2022-01-07 05:55:00,,0816.9,4.98,0.00,21.5,20.7,00.0,30.8,22.6,06.0,0002.3,0018.71,0011.67,0010.52
2022-01-07 05:56:00,,0816.9,5.00,0.00,21.3,20.1,00.0,30.7,22.4,06.2,0002.0,0018.87,0011.68,0010.49
2022-01-07 05:57:00,,0816.8,5.00,0.00,21.2,20.3,00.0,30.7,22.3,06.5,0002.3,0018.90,0011.71,0010.48
2022-01-07 05:58:00,,0816.9,5.00,0.00,21.3,21.2,00.0,30.7,22.7,07.0,0002.5,0018.18,0011.56,0010.35
2022-01-07 05:59:00,,0817.3,5.00,0.00,21.4,22.0,00.0,30.7,23.1,06.8,0002.4,0017.78,0011.49,0010.31
